Location: Alt?nova Orta
(36.9295°N, 30.7847°E)
Time: 02:53:53
(UTC+00:00)

Cosmos 1190 Rocket - Pass Details

Date: 17 February 2020
Orbit: 756 x 780 km, 74.1° (Epoch: 03 April)

Event Time Altitude Azimuth Distance (km) Brightness Sun altitude
Rises 03:24:03 0° 198° (SSW) 3,217 7.1 -16.6°
Reaches altitude 10° 03:26:25 10° 199° (SSW) 2,299 6.3 -16.1°
Maximum altitude 03:31:38 84° 287° (WNW) 781 3.9 -15.1°
Drops below altitude 10° 03:36:57 10° 16° (NNE) 2,329 6.6 -14.0°
Sets 03:39:21 0° 18° (NNE) 3,263 7.4 -13.5°
